Home > Weather > Aarhus > Past weeks

Flag for Denmark Weather for the Past 2 Weeks in Aarhus, Denmark

Now
36 °F

Chilly.


Feels Like: 32 °F
Forecast: 28 / 35 °F
Wind: 5 mph from West

Location: Tirstrup

Current Time: Feb 13, 2016 at 12:52:47 PM

Latest Report: Feb 13, 2016 at 12:20 PM


Visibility: N/A

Pressure: 29.47 "Hg

Humidity: 48%

Dew point: 18 °F

Location of AarhusLocation

Historic Weather in Aarhus — Graph

°F

Aarhus Temperature Yesterday

Maximum temperature yesterday: 36 °F (at 12:20 AM)
Minimum temperature yesterday: 21 °F (at 11:20 PM)
Average temperature yesterday: 32 °F

High & Low Weather Summary for the Past Weeks

 TemperatureHumidityPressure
High50 °F (Jan 29, 4:20 PM)93% (Jan 29, 11:20 AM)30.07 "Hg (Jan 29, 11:20 AM)
Low18 °F (Feb 13, 5:20 AM)52% (Feb 12, 2:20 PM)28.88 "Hg (Feb 8, 10:50 PM)
Average39 °F80%29.45 "Hg
* Reported Jan 29 11:20 AM — Feb 13 11:20 AM, Aarhus, Weather by CustomWeather, © 2016

Note: Actual official high and low records may vary slightly from our data, if they occured in-between our weather recording intervals... More about our weather records

Advertising

Aarhus Weather History for the Previous 24 Hours

 ConditionsComfort  
Time TempWeatherWind HumidityBarometerVisibility
11:20 AM
Sat, Feb 13
34 °FChilly.2 mph65%29.50 "HgN/A
10:50 AM30 °FChilly.1 mph80%29.50 "HgN/A
10:20 AM27 °FChilly.No wind86%29.50 "HgN/A
9:50 AM21 °FCold.No wind86%29.50 "HgN/A
9:20 AM19 °FCold.No wind93%29.50 "HgN/A
8:50 AM18 °FCold.No wind86%29.50 "HgN/A
8:20 AM18 °FCold.No wind86%29.50 "HgN/A
7:50 AM18 °FCold.1 mph86%29.50 "HgN/A
7:20 AM18 °FCold.No wind86%29.50 "HgN/A
6:50 AM18 °FCold.No wind93%29.50 "HgN/A
6:20 AM19 °FCold.No wind86%29.50 "HgN/A
5:50 AM18 °FCold.1 mph86%29.50 "HgN/A
5:20 AM18 °FCold.No wind86%29.53 "HgN/A
4:20 AM19 °FPassing clouds.No wind86%29.53 "HgN/A
3:20 AM19 °FPassing clouds.No wind86%29.53 "HgN/A
2:20 AM19 °FPassing clouds.No wind86%29.53 "HgN/A
1:50 AM19 °FLight fog.1 mph86%29.53 "HgN/A
1:20 AM19 °FIce fog.No wind86%29.53 "Hg1 mi
12:50 AM21 °FCold.No wind86%29.56 "HgN/A
12:20 AM21 °FCold.No wind86%29.56 "HgN/A
11:50 PM
Fri, Feb 12
21 °FCold.No wind86%29.56 "HgN/A
11:20 PM21 °FCold.No wind86%29.56 "HgN/A
10:20 PM23 °FCold.No wind86%29.56 "HgN/A
9:50 PM23 °FCold.No wind86%29.56 "Hg6 mi
9:20 PM25 °FCold.No wind80%29.56 "HgN/A
8:50 PM25 °FCold.No wind80%29.56 "HgN/A
8:20 PM25 °FCold.No wind86%29.56 "HgN/A
7:50 PM27 °FChilly.No wind80%29.56 "HgN/A
7:20 PM27 °FChilly.No wind80%29.56 "HgN/A
6:50 PM27 °FChilly.1 mph74%29.56 "HgN/A
6:20 PM28 °FChilly.1 mph74%29.56 "HgN/A
5:50 PM28 °FChilly.1 mph74%29.56 "HgN/A
5:20 PM32 °FChilly.1 mph64%29.56 "HgN/A
4:50 PM34 °FChilly.2 mph60%29.56 "HgN/A
4:20 PM36 °FChilly.6 mph52%29.56 "HgN/A
3:50 PM36 °FChilly.6 mph56%29.56 "HgN/A
3:20 PM36 °FPassing clouds.7 mph56%29.56 "HgN/A
2:50 PM36 °FPassing clouds.6 mph52%29.56 "HgN/A
2:20 PM36 °FPassing clouds.8 mph52%29.56 "HgN/A
1:50 PM36 °FPassing clouds.5 mph56%29.56 "HgN/A
1:20 PM36 °FPartly sunny.2 mph60%29.56 "HgN/A
12:50 PM36 °FPartly sunny.5 mph56%29.56 "HgN/A
12:20 PM36 °FPartly sunny.7 mph60%29.56 "HgN/A
Weather by CustomWeather, © 2016

See weather overviewHow to use our weather pages